,,Stat5,,Stat1,,Stat2,,Stat3,,Stat4,,Wind1,,Wind1,
time,status,PA1M_AVG,status,PR1M_SUM,status,RH1M_AVG,status,SR1M_AVG,status,TA1M_AVG,status,W1dAve1m,status,W1sAve1m,
2002-05-11, 00:00:00,VALID,918.126,VALID,0,VALID,96.1079,VALID,-0.0169808,VALID,20.5865,VALID,1,VALID,0.483373,
2002-05-11, 00:01:00,VALID,918.126,VALID,0,VALID,96.2007,VALID,-0.0169808,VALID,20.5706,VALID,12,VALID,0.619721,
2002-05-11, 00:02:00,VALID,918.129,VALID,0,VALID,96.3596,VALID,-0.0169808,VALID,20.5289,VALID,13,VALID,1.08573,
2002-05-11, 00:03:00,VALID,918.127,VALID,0,VALID,96.4601,VALID,-0.0169808,VALID,20.4737,VALID,13,VALID,0.750893,
2002-05-11, 00:04:00,VALID,918.094,VALID,0,VALID,96.7017,VALID,0,VALID,20.4513,VALID,12,VALID,1.15204,
2002-05-11, 00:05:00,VALID,918.042,VALID,0,VALID,96.9649,VALID,0,VALID,20.4384,VALID,24,VALID,1.34417,
2002-05-11, 00:06:00,VALID,917.957,VALID,0,VALID,97.0768,VALID,0.0169808,VALID,20.4322,VALID,16,VALID,1.14063,
2002-05-11, 00:07:00,VALID,917.898,VALID,0,VALID,97.2587,VALID,0.0169808,VALID,20.4319,VALID,12,VALID,1.69629,
2002-05-11, 00:08:00,VALID,917.87,VALID,0,VALID,97.4138,VALID,0,VALID,20.4386,VALID,21,VALID,1.98155,
2002-05-11, 00:09:00,VALID,917.868,VALID,0,VALID,97.4303,VALID,0,VALID,20.4416,VALID,24,VALID,1.51014,
2002-05-11, 00:10:00,VALID,917.907,VALID,0,VALID,97.424,VALID,0,VALID,20.4287,VALID,22,VALID,1.17167,
2002-05-11, 00:11:00,VALID,917.926,VALID,0,VALID,97.4443,VALID,0.0339617,VALID,20.4192,VALID,22,VALID,1.36287,
2002-05-11, 00:12:00,VALID,917.911,VALID,0,VALID,97.5066,VALID,-0.0169808,VALID,20.4152,VALID,11,VALID,1.33929,
2002-05-11, 00:13:00,VALID,917.897,VALID,0,VALID,97.5168,VALID,0.0169808,VALID,20.3999,VALID,14,VALID,1.45879,
2002-05-11, 00:14:00,VALID,917.872,VALID,0,VALID,97.7203,VALID,0,VALID,20.409,VALID,19,VALID,1.54883,
2002-05-11, 00:15:00,VALID,917.859,VALID,0,VALID,97.8601,VALID,0,VALID,20.422,VALID,13,VALID,1.87435,
2002-05-11, 00:16:00,VALID,917.825,VALID,0,VALID,97.9746,VALID,0,VALID,20.461,VALID,15,VALID,1.39583,
2002-05-11, 00:17:00,VALID,917.827,VALID,0,VALID,97.9555,VALID,0,VALID,20.4613,VALID,12,VALID,1.3493,
2002-05-11, 00:18:00,VALID,917.813,VALID,0,VALID,97.9606,VALID,0,VALID,20.4548,VALID,9,VALID,1.28988,
2002-05-11, 00:19:00,VALID,917.801,VALID,0,VALID,98.0598,VALID,0.0339617,VALID,20.4737,VALID,6,VALID,1.54434,
2002-05-11, 00:20:00,VALID,917.79,VALID,0,VALID,98.1437,VALID,0,VALID,20.5,VALID,333,VALID,1.61502,
2002-05-11, 00:21:00,VALID,917.799,VALID,0,VALID,98.145,VALID,0,VALID,20.5189,VALID,310,VALID,0.876478,
2002-05-11, 00:22:00,VALID,917.831,VALID,0,VALID,98.1157,VALID,0,VALID,20.5358,VALID,359,VALID,0.674548,
2002-05-11, 00:23:00,VALID,917.814,VALID,0,VALID,98.1043,VALID,0,VALID,20.5321,VALID,2,VALID,0.9377,
2002-05-11, 00:24:00,VALID,917.836,VALID,0,VALID,98.0725,VALID,0,VALID,20.5092,VALID,302,VALID,0.4377,
2002-05-11, 00:25:00,VALID,917.848,VALID,0,VALID,98.1106,VALID,0,VALID,20.5,VALID,6,VALID,0.711993,
2002-05-11, 00:26:00,VALID,917.818,VALID,0,VALID,98.1908,VALID,-0.0169808,VALID,20.5065,VALID,24,VALID,2.21628,
2002-05-11, 00:27:00,VALID,917.762,VALID,0,VALID,98.2721,VALID,0,VALID,20.5095,VALID,14,VALID,2.3153,
2002-05-11, 00:28:00,VALID,917.715,VALID,0,VALID,98.3294,VALID,0,VALID,20.5192,VALID,20,VALID,2.18049,
2002-05-11, 00:29:00,VALID,917.681,VALID,0,VALID,98.3484,VALID,0,VALID,20.5192,VALID,12,VALID,1.21094,
2002-05-11, 00:30:00,VALID,917.658,VALID,0,VALID,98.3599,VALID,0,VALID,20.5027,VALID,19,VALID,1.353,
2002-05-11, 00:31:00,VALID,917.649,VALID,0,VALID,98.4184,VALID,0.0169808,VALID,20.5062,VALID,24,VALID,1.92209,
2002-05-11, 00:32:00,VALID,917.621,VALID,0,VALID,98.468,VALID,0.0169808,VALID,20.5189,VALID,334,VALID,0.912977,
2002-05-11, 00:33:00,VALID,917.643,VALID,0,VALID,98.4756,VALID,0.0169808,VALID,20.4993,VALID,299,VALID,0.00868056,
2002-05-11, 00:34:00,VALID,917.65,VALID,0,VALID,98.4909,VALID,0,VALID,20.4933,VALID,357,VALID,0.33491,
2002-05-11, 00:35:00,VALID,917.629,VALID,0,VALID,98.4921,VALID,-0.0169808,VALID,20.5062,VALID,21,VALID,0.620566,
2002-05-11, 00:36:00,VALID,917.634,VALID,0,VALID,98.5074,VALID,0,VALID,20.5003,VALID,16,VALID,0.658929,
2002-05-11, 00:37:00,VALID,917.635,VALID,0,VALID,98.5023,VALID,0,VALID,20.4903,VALID,19,VALID,0.549554,
2002-05-11, 00:38:00,VALID,917.621,VALID,0,VALID,98.4909,VALID,0,VALID,20.4806,VALID,18,VALID,0.370888,
2002-05-11, 00:39:00,VALID,917.602,VALID,0,VALID,98.4998,VALID,-0.0169808,VALID,20.4483,VALID,19,VALID,0.405649,
2002-05-11, 00:40:00,VALID,917.585,VALID,0,VALID,98.5315,VALID,0,VALID,20.4351,VALID,20,VALID,0.433008,
2002-05-11, 00:41:00,VALID,917.553,VALID,0,VALID,98.5443,VALID,0,VALID,20.4187,VALID,11,VALID,0.407072,
2002-05-11, 00:42:00,VALID,917.533,VALID,0,VALID,98.5659,VALID,0,VALID,20.4255,VALID,9,VALID,0.0555321,
2002-05-11, 00:43:00,VALID,917.554,VALID,0,VALID,98.5926,VALID,0,VALID,20.416,VALID,9,VALID,0,
2002-05-11, 00:44:00,VALID,917.55,VALID,0,VALID,98.6066,VALID,0,VALID,20.3991,VALID,9,VALID,0,
2002-05-11, 00:45:00,VALID,917.581,VALID,0,VALID,98.646,VALID,0.0169808,VALID,20.4163,VALID,9,VALID,0,
2002-05-11, 00:46:00,VALID,917.577,VALID,0,VALID,98.6549,VALID,0,VALID,20.4155,VALID,9,VALID,0,
2002-05-11, 00:47:00,VALID,917.541,VALID,0,VALID,98.6663,VALID,-0.0169808,VALID,20.416,VALID,9,VALID,0.0675781,
2002-05-11, 00:48:00,VALID,917.495,VALID,0,VALID,98.6727,VALID,0,VALID,20.4093,VALID,9,VALID,0.360243,
2002-05-11, 00:49:00,VALID,917.474,VALID,0,VALID,98.6587,VALID,-0.0169808,VALID,20.3999,VALID,4,VALID,0.394314,
2002-05-11, 00:50:00,VALID,917.474,VALID,0,VALID,98.6816,VALID,-0.0169808,VALID,20.3869,VALID,6,VALID,0.716005,
2002-05-11, 00:51:00,VALID,917.472,VALID,0,VALID,98.693,VALID,0,VALID,20.4001,VALID,6,VALID,0.60588,
2002-05-11, 00:52:00,VALID,917.477,VALID,0,VALID,98.6956,VALID,0,VALID,20.3869,VALID,13,VALID,0.406039,
2002-05-11, 00:53:00,VALID,917.482,VALID,0,VALID,98.6841,VALID,-0.0169808,VALID,20.37,VALID,12,VALID,0,
2002-05-11, 00:54:00,VALID,917.473,VALID,0,VALID,98.6791,VALID,0,VALID,20.3638,VALID,12,VALID,0.38125,
2002-05-11, 00:55:00,VALID,917.449,VALID,0,VALID,98.6867,VALID,0,VALID,20.3673,VALID,12,VALID,0.841077,
2002-05-11, 00:56:00,VALID,917.442,VALID,0,VALID,98.721,VALID,0.0169808,VALID,20.3738,VALID,20,VALID,1.02787,
2002-05-11, 00:57:00,VALID,917.411,VALID,0,VALID,98.7414,VALID,0,VALID,20.3708,VALID,23,VALID,1.05412,
2002-05-11, 00:58:00,VALID,917.393,VALID,0,VALID,98.7528,VALID,0.0339617,VALID,20.3738,VALID,17,VALID,1.16602,
2002-05-11, 00:59:00,VALID,917.351,VALID,0,VALID,98.7681,VALID,0.0169808,VALID,20.3703,VALID,18,VALID,1.6986,
2002-05-11, 01:00:00,VALID,917.302,VALID,0,VALID,98.7655,VALID,0.0169808,VALID,20.3509,VALID,14,VALID,1.78686,
2002-05-11, 01:01:00,VALID,917.289,VALID,0,VALID,98.7668,VALID,0,VALID,20.3646,VALID,16,VALID,1.60684,
2002-05-11, 01:02:00,VALID,917.308,VALID,0,VALID,98.7604,VALID,0,VALID,20.3514,VALID,15,VALID,1.42548,
2002-05-11, 01:03:00,VALID,917.307,VALID,0,VALID,98.7795,VALID,-0.0169808,VALID,20.3452,VALID,17,VALID,1.22656,
2002-05-11, 01:04:00,VALID,917.298,VALID,0,VALID,98.8011,VALID,0,VALID,20.3546,VALID,24,VALID,1.10293,
2002-05-11, 01:05:00,VALID,917.308,VALID,0,VALID,98.796,VALID,0,VALID,20.3511,VALID,16,VALID,1.24523,
2002-05-11, 01:06:00,VALID,917.308,VALID,0,VALID,98.8037,VALID,0.0169808,VALID,20.3541,VALID,329,VALID,0.788845,
2002-05-11, 01:07:00,VALID,917.328,VALID,0,VALID,98.7999,VALID,0,VALID,20.3476,VALID,251,VALID,0.151042,
2002-05-11, 01:08:00,VALID,917.342,VALID,0,VALID,98.8189,VALID,0,VALID,20.3616,VALID,305,VALID,0.235814,
2002-05-11, 01:09:00,VALID,917.348,VALID,0,VALID,98.8215,VALID,0,VALID,20.3606,VALID,351,VALID,0.252673,
2002-05-11, 01:10:00,VALID,917.353,VALID,0,VALID,98.8189,VALID,0,VALID,20.3546,VALID,15,VALID,1.03695,
2002-05-11, 01:11:00,VALID,917.314,VALID,0,VALID,98.8329,VALID,0.0169808,VALID,20.3641,VALID,20,VALID,1.59592,
2002-05-11, 01:12:00,VALID,917.28,VALID,0,VALID,98.8584,VALID,0,VALID,20.3705,VALID,15,VALID,1.61803,
2002-05-11, 01:13:00,VALID,917.259,VALID,0,VALID,98.8685,VALID,0,VALID,20.3735,VALID,15,VALID,1.21155,
2002-05-11, 01:14:00,VALID,917.255,VALID,0,VALID,98.8533,VALID,0.0169808,VALID,20.37,VALID,16,VALID,0.742188,
2002-05-11, 01:15:00,VALID,917.25,VALID,0,VALID,98.8609,VALID,0,VALID,20.3834,VALID,11,VALID,0.345753,
2002-05-11, 01:16:00,VALID,917.248,VALID,0,VALID,98.8482,VALID,0,VALID,20.3899,VALID,348,VALID,0.101351,
2002-05-11, 01:17:00,VALID,917.244,VALID,0,VALID,98.8482,VALID,0.0169808,VALID,20.3931,VALID,16,VALID,0.658306,
2002-05-11, 01:18:00,VALID,917.238,VALID,0,VALID,98.8571,VALID,0,VALID,20.3993,VALID,6,VALID,0.447716,
2002-05-11, 01:19:00,VALID,917.255,VALID,0,VALID,98.8469,VALID,-0.0169808,VALID,20.4063,VALID,12,VALID,0.422075,
2002-05-11, 01:20:00,VALID,917.264,VALID,0,VALID,98.8584,VALID,0.0169808,VALID,20.4026,VALID,14,VALID,0.516544,
2002-05-11, 01:21:00,VALID,917.253,VALID,0,VALID,98.8622,VALID,0,VALID,20.4158,VALID,10,VALID,0.252878,
2002-05-11, 01:22:00,VALID,917.237,VALID,0,VALID,98.852,VALID,0.0169808,VALID,20.4357,VALID,18,VALID,0.626056,
2002-05-11, 01:23:00,VALID,917.203,VALID,0,VALID,98.8533,VALID,0,VALID,20.4257,VALID,24,VALID,0.544271,
2002-05-11, 01:24:00,VALID,917.189,VALID,0,VALID,98.8494,VALID,0,VALID,20.419,VALID,5,VALID,0.690321,
2002-05-11, 01:25:00,VALID,917.144,VALID,0,VALID,98.8304,VALID,0,VALID,20.3993,VALID,5,VALID,0.750206,
2002-05-11, 01:26:00,VALID,917.12,VALID,0,VALID,98.8406,VALID,0,VALID,20.3929,VALID,10,VALID,0.633446,
2002-05-11, 01:27:00,VALID,917.061,VALID,0.2,VALID,98.8596,VALID,-0.0169808,VALID,20.4031,VALID,22,VALID,1.24464,
2002-05-11, 01:28:00,VALID,917.009,VALID,0,VALID,98.8838,VALID,-0.0169808,VALID,20.413,VALID,345,VALID,0.8125,
2002-05-11, 01:29:00,VALID,916.997,VALID,0,VALID,98.9003,VALID,-0.0169808,VALID,20.4195,VALID,86,VALID,0.486637,
2002-05-11, 01:30:00,VALID,917.032,VALID,0,VALID,98.9092,VALID,0,VALID,20.4096,VALID,131,VALID,0.591146,
2002-05-11, 01:31:00,VALID,917.005,VALID,0.2,VALID,98.894,VALID,0,VALID,20.4163,VALID,283,VALID,0.55918,
2002-05-11, 01:32:00,VALID,916.976,VALID,0,VALID,98.8698,VALID,0,VALID,20.4257,VALID,210,VALID,0.589227,
2002-05-11, 01:33:00,VALID,916.945,VALID,0,VALID,98.852,VALID,0,VALID,20.4198,VALID,3,VALID,0.561867,
2002-05-11, 01:34:00,VALID,916.924,VALID,0,VALID,98.8075,VALID,-0.0169808,VALID,20.4225,VALID,13,VALID,0.960136,
2002-05-11, 01:35:00,VALID,916.923,VALID,0,VALID,98.791,VALID,-0.0169808,VALID,20.4357,VALID,32,VALID,0.713942,
2002-05-11, 01:36:00,VALID,916.914,VALID,0,VALID,98.7503,VALID,-0.0169808,VALID,20.4289,VALID,333,VALID,0.810497,
2002-05-11, 01:37:00,VALID,916.913,VALID,0,VALID,98.688,VALID,-0.0509425,VALID,20.426,VALID,257,VALID,0.282589,
2002-05-11, 01:38:00,VALID,916.928,VALID,0,VALID,98.6473,VALID,-0.0339617,VALID,20.426,VALID,12,VALID,0.79375,
2002-05-11, 01:39:00,VALID,916.902,VALID,0,VALID,98.6066,VALID,-0.118866,VALID,20.4273,VALID,249,VALID,0.618707,
2002-05-11, 01:40:00,VALID,916.88,VALID,0,VALID,98.5748,VALID,-0.101885,VALID,20.441,VALID,206,VALID,0.275174,
2002-05-11, 01:41:00,VALID,916.894,VALID,0,VALID,98.5379,VALID,-0.118866,VALID,20.4434,VALID,107,VALID,0.197846,
2002-05-11, 01:42:00,VALID,916.903,VALID,0,VALID,98.4756,VALID,-0.101885,VALID,20.4566,VALID,223,VALID,0.363487,
2002-05-11, 01:43:00,VALID,916.9,VALID,0,VALID,98.4336,VALID,-0.0849042,VALID,20.4464,VALID,214,VALID,0.660895,
2002-05-11, 01:44:00,VALID,916.909,VALID,0,VALID,98.365,VALID,-0.118866,VALID,20.4569,VALID,214,VALID,0.812289,
2002-05-11, 01:45:00,VALID,916.935,VALID,0,VALID,98.3179,VALID,-0.101885,VALID,20.4528,VALID,308,VALID,0.545536,
2002-05-11, 01:46:00,VALID,916.954,VALID,0,VALID,98.2849,VALID,-0.101885,VALID,20.4658,VALID,268,VALID,0.553043,
2002-05-11, 01:47:00,VALID,916.958,VALID,0,VALID,98.2518,VALID,-0.101885,VALID,20.4491,VALID,179,VALID,0.14337,
2002-05-11, 01:48:00,VALID,916.995,VALID,0,VALID,98.2073,VALID,-0.101885,VALID,20.4563,VALID,99,VALID,0.40282,
2002-05-11, 01:49:00,VALID,916.97,VALID,0,VALID,98.2073,VALID,-0.101885,VALID,20.4625,VALID,17,VALID,1.60762,
2002-05-11, 01:50:00,VALID,916.963,VALID,0,VALID,98.2073,VALID,-0.0849042,VALID,20.4663,VALID,19,VALID,0.710115,
2002-05-11, 01:51:00,VALID,916.964,VALID,0,VALID,98.2149,VALID,-0.0849042,VALID,20.4563,VALID,217,VALID,0.651933,
2002-05-11, 01:52:00,VALID,916.933,VALID,0,VALID,98.2137,VALID,-0.101885,VALID,20.4625,VALID,222,VALID,0.771289,
2002-05-11, 01:53:00,VALID,916.916,VALID,0,VALID,98.2073,VALID,-0.0849042,VALID,20.4687,VALID,305,VALID,0.860777,
2002-05-11, 01:54:00,VALID,916.914,VALID,0,VALID,98.2264,VALID,0,VALID,20.4747,VALID,15,VALID,1.52009,
2002-05-11, 01:55:00,VALID,916.82,VALID,0,VALID,98.1857,VALID,-0.0509425,VALID,20.4682,VALID,246,VALID,0.507813,
2002-05-11, 01:56:00,VALID,916.828,VALID,0,VALID,98.2035,VALID,0,VALID,20.465,VALID,271,VALID,0.589193,
2002-05-11, 01:57:00,VALID,916.825,VALID,0,VALID,98.2124,VALID,-0.0169808,VALID,20.462,VALID,25,VALID,0.608073,
2002-05-11, 01:58:00,VALID,916.783,VALID,0,VALID,98.2111,VALID,-0.0169808,VALID,20.4618,VALID,22,VALID,0.662861,
2002-05-11, 01:59:00,VALID,916.734,VALID,0,VALID,98.2111,VALID,0,VALID,20.4613,VALID,25,VALID,1.8933,
2002-05-11, 02:00:00,VALID,916.679,VALID,0,VALID,98.1908,VALID,0.0169808,VALID,20.4615,VALID,11,VALID,1.2391,
2002-05-11, 02:01:00,VALID,916.68,VALID,0,VALID,98.1857,VALID,-0.0509425,VALID,20.4556,VALID,25,VALID,1.16533,
2002-05-11, 02:02:00,VALID,916.66,VALID,0,VALID,98.178,VALID,-0.0169808,VALID,20.4257,VALID,44,VALID,0.506727,
2002-05-11, 02:03:00,VALID,916.651,VALID,0,VALID,98.1971,VALID,-0.0339617,VALID,20.426,VALID,14,VALID,0.797931,
2002-05-11, 02:04:00,VALID,916.634,VALID,0,VALID,98.2073,VALID,-0.0169808,VALID,20.4128,VALID,360,VALID,0.468956,
2002-05-11, 02:05:00,VALID,916.593,VALID,0,VALID,98.2187,VALID,-0.0339617,VALID,20.42,VALID,344,VALID,0.722356,
2002-05-11, 02:06:00,VALID,916.562,VALID,0,VALID,98.2289,VALID,-0.0509425,VALID,20.4031,VALID,319,VALID,1.45613,
2002-05-11, 02:07:00,VALID,916.527,VALID,0,VALID,98.262,VALID,0,VALID,20.3966,VALID,18,VALID,2.08003,
2002-05-11, 02:08:00,VALID,916.531,VALID,0,VALID,98.3001,VALID,-0.0509425,VALID,20.4136,VALID,14,VALID,0.988898,
2002-05-11, 02:09:00,VALID,916.595,VALID,0,VALID,98.3256,VALID,-0.0679233,VALID,20.4168,VALID,13,VALID,2.09535,
2002-05-11, 02:10:00,VALID,916.584,VALID,0,VALID,98.3497,VALID,0,VALID,20.423,VALID,2,VALID,1.11438,
2002-05-11, 02:11:00,VALID,916.552,VALID,0,VALID,98.3535,VALID,0,VALID,20.4198,VALID,358,VALID,1.66636,
2002-05-11, 02:12:00,VALID,916.533,VALID,0,VALID,98.3612,VALID,-0.0169808,VALID,20.42,VALID,22,VALID,1.27878,
2002-05-11, 02:13:00,VALID,916.535,VALID,0,VALID,98.3713,VALID,-0.0169808,VALID,20.4165,VALID,28,VALID,0.449747,
2002-05-11, 02:14:00,VALID,916.551,VALID,0.2,VALID,98.3904,VALID,-0.0169808,VALID,20.4168,VALID,99,VALID,0.376302,
2002-05-11, 02:15:00,VALID,916.526,VALID,0,VALID,98.4082,VALID,0,VALID,20.4096,VALID,193,VALID,0.314236,
2002-05-11, 02:16:00,VALID,916.525,VALID,0,VALID,98.4095,VALID,-0.0169808,VALID,20.4203,VALID,236,VALID,0.408717,
2002-05-11, 02:17:00,VALID,916.471,VALID,0,VALID,98.3739,VALID,-0.0169808,VALID,20.4033,VALID,267,VALID,1.50908,
2002-05-11, 02:18:00,VALID,916.392,VALID,0,VALID,98.2989,VALID,0,VALID,20.4426,VALID,288,VALID,1.9279,
2002-05-11, 02:19:00,VALID,916.408,VALID,0,VALID,98.2035,VALID,-0.0679233,VALID,20.4613,VALID,209,VALID,0.436161,
2002-05-11, 02:20:00,VALID,916.391,VALID,0,VALID,98.117,VALID,-0.0679233,VALID,20.4809,VALID,78,VALID,0.396382,
2002-05-11, 02:21:00,VALID,916.397,VALID,0,VALID,98.0839,VALID,-0.0509425,VALID,20.4903,VALID,39,VALID,0.960938,
2002-05-11, 02:22:00,VALID,916.397,VALID,0,VALID,98.0585,VALID,-0.0339617,VALID,20.5068,VALID,20,VALID,1.68691,
2002-05-11, 02:23:00,VALID,916.373,VALID,0,VALID,98.0547,VALID,-0.0169808,VALID,20.5005,VALID,22,VALID,2.21854,
2002-05-11, 02:24:00,VALID,916.327,VALID,0,VALID,98.089,VALID,-0.0169808,VALID,20.5038,VALID,15,VALID,1.17272,
2002-05-11, 02:25:00,VALID,916.346,VALID,0,VALID,98.0928,VALID,0,VALID,20.504,VALID,24,VALID,1.85076,
2002-05-11, 02:26:00,VALID,916.326,VALID,0,VALID,98.1691,VALID,-0.0339617,VALID,20.4906,VALID,22,VALID,1.80449,
2002-05-11, 02:27:00,VALID,916.319,VALID,0,VALID,98.1984,VALID,-0.0169808,VALID,20.4938,VALID,18,VALID,0.902845,
2002-05-11, 02:28:00,VALID,916.332,VALID,0,VALID,98.2302,VALID,-0.0339617,VALID,20.4744,VALID,14,VALID,0.977902,
2002-05-11, 02:29:00,VALID,916.294,VALID,0,VALID,98.2378,VALID,-0.0169808,VALID,20.4814,VALID,16,VALID,1.00937,
2002-05-11, 02:30:00,VALID,916.238,VALID,0,VALID,98.2899,VALID,-0.0509425,VALID,20.468,VALID,31,VALID,1.08312,
2002-05-11, 02:31:00,VALID,916.192,VALID,0,VALID,98.3268,VALID,-0.0339617,VALID,20.4717,VALID,18,VALID,0.969401,
2002-05-11, 02:32:00,VALID,916.164,VALID,0,VALID,98.3434,VALID,-0.0169808,VALID,20.4653,VALID,43,VALID,0.182855,
2002-05-11, 02:33:00,VALID,916.109,VALID,0,VALID,98.3662,VALID,-0.0339617,VALID,20.4655,VALID,36,VALID,0.882813,
2002-05-11, 02:34:00,VALID,916.067,VALID,0,VALID,98.4018,VALID,-0.0509425,VALID,20.4459,VALID,71,VALID,0.471706,
2002-05-11, 02:35:00,VALID,916.073,VALID,0,VALID,98.4336,VALID,-0.0339617,VALID,20.4461,VALID,110,VALID,0.649916,
2002-05-11, 02:36:00,VALID,916.103,VALID,0,VALID,98.4769,VALID,-0.0169808,VALID,20.4461,VALID,18,VALID,0.272768,
2002-05-11, 02:37:00,VALID,916.089,VALID,0.2,VALID,98.5214,VALID,0,VALID,20.4556,VALID,6,VALID,0.631168,
2002-05-11, 02:38:00,VALID,916.061,VALID,0,VALID,98.5532,VALID,0,VALID,20.4518,VALID,284,VALID,0.536106,
2002-05-11, 02:39:00,VALID,916.051,VALID,0,VALID,98.5761,VALID,-0.0339617,VALID,20.4386,VALID,35,VALID,1.0686,
2002-05-11, 02:40:00,VALID,916.008,VALID,0,VALID,98.6206,VALID,0,VALID,20.4516,VALID,3,VALID,0.501172,
2002-05-11, 02:41:00,VALID,915.971,VALID,0,VALID,98.59,VALID,0.0169808,VALID,20.4459,VALID,95,VALID,0.859786,
2002-05-11, 02:42:00,VALID,915.966,VALID,0,VALID,98.6282,VALID,-0.0339617,VALID,20.4327,VALID,43,VALID,0.492599,
2002-05-11, 02:43:00,VALID,915.962,VALID,0.2,VALID,98.6295,VALID,-0.0509425,VALID,20.4061,VALID,70,VALID,0.677539,
2002-05-11, 02:44:00,VALID,915.985,VALID,0,VALID,98.6765,VALID,-0.0169808,VALID,20.4359,VALID,13,VALID,0.820313,
2002-05-11, 02:45:00,VALID,915.971,VALID,0,VALID,98.6841,VALID,-0.0169808,VALID,20.4389,VALID,58,VALID,0.470759,
2002-05-11, 02:46:00,VALID,915.957,VALID,0,VALID,98.6765,VALID,-0.0169808,VALID,20.4322,VALID,339,VALID,1.31855,
2002-05-11, 02:47:00,VALID,915.973,VALID,0,VALID,98.6524,VALID,-0.0509425,VALID,20.4556,VALID,228,VALID,0.846354,
2002-05-11, 02:48:00,VALID,915.988,VALID,0,VALID,98.6231,VALID,-0.0339617,VALID,20.4615,VALID,207,VALID,0.811632,
2002-05-11, 02:49:00,VALID,916.013,VALID,0,VALID,98.5799,VALID,-0.0339617,VALID,20.4613,VALID,255,VALID,0.2502,
2002-05-11, 02:50:00,VALID,916.015,VALID,0,VALID,98.5786,VALID,-0.0169808,VALID,20.4675,VALID,288,VALID,0.344161,
2002-05-11, 02:51:00,VALID,916.016,VALID,0,VALID,98.59,VALID,0,VALID,20.4744,VALID,344,VALID,0.317845,
2002-05-11, 02:52:00,VALID,916.049,VALID,0,VALID,98.5697,VALID,0,VALID,20.458,VALID,8,VALID,0.0371622,
2002-05-11, 02:53:00,VALID,916.07,VALID,0,VALID,98.5964,VALID,-0.0169808,VALID,20.468,VALID,8,VALID,0.0477431,
2002-05-11, 02:54:00,VALID,916.068,VALID,0,VALID,98.6028,VALID,0,VALID,20.4607,VALID,12,VALID,0.266047,
2002-05-11, 02:55:00,VALID,916.038,VALID,0,VALID,98.6613,VALID,0.0169808,VALID,20.4774,VALID,355,VALID,0.448396,
2002-05-11, 02:56:00,VALID,915.994,VALID,0,VALID,98.6867,VALID,0,VALID,20.4839,VALID,7,VALID,0.404447,
2002-05-11, 02:57:00,VALID,915.969,VALID,0,VALID,98.6829,VALID,0.0339617,VALID,20.4734,VALID,321,VALID,0.125601,
2002-05-11, 02:58:00,VALID,915.966,VALID,0,VALID,98.6651,VALID,0.0339617,VALID,20.4675,VALID,291,VALID,0.519215,
2002-05-11, 02:59:00,VALID,915.975,VALID,0,VALID,98.707,VALID,0,VALID,20.4712,VALID,22,VALID,1.63261,
2002-05-11, 03:00:00,VALID,915.971,VALID,0,VALID,98.7477,VALID,0,VALID,20.4607,VALID,32,VALID,1.29067,
2002-05-11, 03:01:00,VALID,915.963,VALID,0,VALID,98.7668,VALID,0.0339617,VALID,20.4774,VALID,24,VALID,1.42288,
2002-05-11, 03:02:00,VALID,915.952,VALID,0,VALID,98.7973,VALID,0,VALID,20.4806,VALID,22,VALID,1.63304,
2002-05-11, 03:03:00,VALID,915.91,VALID,0,VALID,98.796,VALID,0.0169808,VALID,20.4742,VALID,26,VALID,1.92311,
2002-05-11, 03:04:00,VALID,915.888,VALID,0,VALID,98.8075,VALID,0.0169808,VALID,20.4709,VALID,23,VALID,1.70376,
2002-05-11, 03:05:00,VALID,915.87,VALID,0,VALID,98.8304,VALID,0.0339617,VALID,20.4675,VALID,19,VALID,0.913845,
2002-05-11, 03:06:00,VALID,915.849,VALID,0,VALID,98.8304,VALID,0,VALID,20.461,VALID,8,VALID,0.639974,
2002-05-11, 03:07:00,VALID,915.836,VALID,0,VALID,98.838,VALID,0,VALID,20.4548,VALID,11,VALID,0.614309,
2002-05-11, 03:08:00,VALID,915.825,VALID,0,VALID,98.8444,VALID,-0.0169808,VALID,20.4481,VALID,5,VALID,0.31989,
2002-05-11, 03:09:00,VALID,915.804,VALID,0,VALID,98.838,VALID,-0.101885,VALID,20.4432,VALID,58,VALID,1.21228,
2002-05-11, 03:10:00,VALID,915.75,VALID,0,VALID,98.8139,VALID,-0.118866,VALID,20.43,VALID,9,VALID,1.35402,
2002-05-11, 03:11:00,VALID,915.784,VALID,0,VALID,98.8088,VALID,-0.101885,VALID,20.4337,VALID,347,VALID,0.468956,
2002-05-11, 03:12:00,VALID,915.822,VALID,0,VALID,98.7846,VALID,-0.101885,VALID,20.4205,VALID,328,VALID,0.546675,
2002-05-11, 03:13:00,VALID,915.838,VALID,0,VALID,98.7808,VALID,-0.0849042,VALID,20.4205,VALID,356,VALID,0.64668,
2002-05-11, 03:14:00,VALID,915.85,VALID,0,VALID,98.7693,VALID,-0.101885,VALID,20.4302,VALID,347,VALID,0.564967,
2002-05-11, 03:15:00,VALID,915.408,VALID,0,VALID,98.7732,VALID,-0.101885,VALID,20.4073,VALID,13,VALID,0.654772,
2002-05-11, 03:16:00,VALID,915.829,VALID,0,VALID,98.7706,VALID,-0.101885,VALID,20.4208,VALID,17,VALID,1.50581,
2002-05-11, 03:17:00,VALID,915.811,VALID,0,VALID,98.7871,VALID,-0.101885,VALID,20.4073,VALID,15,VALID,2.11178,
2002-05-11, 03:18:00,VALID,915.798,VALID,0,VALID,98.7719,VALID,-0.101885,VALID,20.4073,VALID,16,VALID,2.46775,
2002-05-11, 03:19:00,VALID,915.804,VALID,0,VALID,98.7592,VALID,-0.101885,VALID,20.4108,VALID,360,VALID,1.58527,
2002-05-11, 03:20:00,VALID,915.841,VALID,0,VALID,98.7312,VALID,-0.0849042,VALID,20.4173,VALID,343,VALID,0.22793,
2002-05-11, 03:21:00,VALID,915.88,VALID,0,VALID,98.7019,VALID,-0.101885,VALID,20.417,VALID,27,VALID,0.930556,
2002-05-11, 03:22:00,VALID,915.88,VALID,0,VALID,98.6918,VALID,-0.101885,VALID,20.4302,VALID,330,VALID,0.698568,
2002-05-11, 03:23:00,VALID,915.883,VALID,0,VALID,98.6714,VALID,-0.0679233,VALID,20.43,VALID,23,VALID,1.50486,
2002-05-11, 03:24:00,VALID,915.875,VALID,0,VALID,98.6574,VALID,0,VALID,20.4287,VALID,21,VALID,1.21279,
2002-05-11, 03:25:00,VALID,915.849,VALID,0,VALID,98.66,VALID,0,VALID,20.4324,VALID,19,VALID,2.03674,
2002-05-11, 03:26:00,VALID,915.857,VALID,0,VALID,98.6511,VALID,0,VALID,20.4327,VALID,13,VALID,1.62253,
2002-05-11, 03:27:00,VALID,915.852,VALID,0,VALID,98.6409,VALID,0,VALID,20.4125,VALID,13,VALID,2.29129,
2002-05-11, 03:28:00,VALID,915.82,VALID,0,VALID,98.6435,VALID,0,VALID,20.4158,VALID,354,VALID,1.58326,
2002-05-11, 03:29:00,VALID,915.829,VALID,0,VALID,98.6358,VALID,0,VALID,20.4155,VALID,20,VALID,1.08319,
2002-05-11, 03:30:00,VALID,915.818,VALID,0,VALID,98.6282,VALID,0.0169808,VALID,20.4158,VALID,9,VALID,1.64463,
2002-05-11, 03:31:00,VALID,915.792,VALID,0,VALID,98.6295,VALID,0,VALID,20.4163,VALID,359,VALID,1.8043,
2002-05-11, 03:32:00,VALID,915.794,VALID,0,VALID,98.6117,VALID,0.0169808,VALID,20.4155,VALID,330,VALID,1.15049,
2002-05-11, 03:33:00,VALID,915.826,VALID,0,VALID,98.5888,VALID,0.0169808,VALID,20.4222,VALID,27,VALID,0.817023,
2002-05-11, 03:34:00,VALID,915.831,VALID,0,VALID,98.571,VALID,0.0339617,VALID,20.4123,VALID,302,VALID,0.419336,
2002-05-11, 03:35:00,VALID,915.867,VALID,0,VALID,98.5519,VALID,0.0169808,VALID,20.4123,VALID,245,VALID,0.052484,
2002-05-11, 03:36:00,VALID,915.868,VALID,0,VALID,98.5366,VALID,0.0339617,VALID,20.3988,VALID,13,VALID,0.582366,